This demonstration page uses our WeatherBlox Daily Observations layout. Learn more.

Left ArrowRight Arrow

Hourly Observations for December 7, 2020

Temp ( °F °C ) Dew Point ( °F °C ) Humidity (%) Winds ( mph kmh ) Pressure ( in mb ) Visibility ( mi km ) Precip ( " mm )
12:52 am 00:52 Cloudy with Mist and Fog 31 -0.6 30 -1.1 96 96 SW 5 7 30.13 1020 2 2 0.00 0.00
1:31 am 01:31 Cloudy with Mist and Fog 30 -1.1 29 -1.7 96 96 S 3 6 30.16 1021 2 3 0.00 0.00
1:52 am 01:52 Partly Cloudy with Mist and Fog 29 -1.7 28 -2.2 96 96 SSE 3 6 30.12 1020 3 5 0.00 0.00
2:52 am 02:52 Mostly Cloudy with Freezing Fog 26 -3.3 25 -3.9 96 96 SE 8 13 30.11 1020 0 0 0.00 0.00
3:32 am 03:32 Mostly Cloudy with Freezing Fog 28 -2.2 27 -2.8 96 96 SE 6 9 30.14 1021 1 2 0.00 0.00
3:52 am 03:52 Mostly Cloudy with Mist and Fog 27 -2.8 27 -2.8 100 100 SE 8 13 30.10 1019 1 1 0.00 0.00
4:01 am 04:01 Mostly Cloudy with Mist and Fog 27 -2.8 26 -3.3 96 96 SE 7 11 30.13 1020 1 2 0.00 0.00
4:09 am 04:09 Partly Cloudy with Mist and Fog 26 -3.3 26 -3.3 100 100 SSE 6 9 30.14 1021 2 3 0.00 0.00
4:37 am 04:37 Mostly Cloudy with Mist and Fog 25 -3.9 24 -4.4 96 96 SSE 7 11 30.14 1021 1 1 0.00 0.00
4:42 am 04:42 Mostly Cloudy with Freezing Fog 25 -3.9 24 -4.4 96 96 SSE 7 11 30.13 1020 0 0 0.00 0.00
4:52 am 04:52 Mostly Cloudy with Freezing Fog 26 -3.3 25 -3.9 96 96 SSE 6 9 30.09 1019 0 0 0.00 0.00
5:45 am 05:45 Mostly Cloudy with Freezing Fog 26 -3.3 25 -3.9 96 96 SE 5 7 30.13 1020 0 0 0.00 0.00
5:52 am 05:52 Mostly Cloudy with Freezing Fog 26 -3.3 25 -3.9 96 96 SE 5 7 30.10 1019 1 2 0.00 0.00
5:59 am 05:59 Mostly Cloudy with Freezing Fog 26 -3.3 25 -3.9 96 96 SE 5 7 30.14 1021 1 2 0.00 0.00
6:52 am 06:52 Mostly Cloudy with Freezing Fog 24 -4.4 24 -4.4 100 100 Calm 30.10 1019 1 2 0.00 0.00
7:52 am 07:52 Mostly Cloudy with Freezing Fog 24 -4.4 23 -5 96 96 SE 3 6 30.12 1020 0 0 0.00 0.00
7:59 am 07:59 Mostly Cloudy with Freezing Fog 24 -4.4 23 -5 96 96 Calm 30.16 1021 1 1 0.00 0.00
8:17 am 08:17 Partly Cloudy with Mist and Fog 26 -3.3 25 -3.9 96 96 Calm 30.16 1021 1 1 0.00 0.00
8:30 am 08:30 Sunny with Patchy Fog 27 -2.8 26 -3.3 96 96 Calm 30.16 1021 7 11 0.00 0.00
8:52 am 08:52 Sunny with Patchy Fog 28 -2.2 27 -2.8 96 96 Calm 30.13 1020 7 11 0.00 0.00
9:52 am 09:52 Sunny 32 0 29 -1.7 88 88 Calm 30.14 1021 10 16 0.00 0.00
10:52 am 10:52 Sunny 39 3.9 31 -0.6 73 73 N 9 15 30.13 1020 10 16 0.00 0.00
11:52 am 11:52 Sunny 44 6.7 30 -1.1 58 58 VRB 5 7 30.10 1019 10 16 0.00 0.00
12:52 pm 12:52 Sunny 48 8.9 32 0 54 54 WNW 9 15 30.09 1019 10 16 0.00 0.00
1:52 pm 13:52 Sunny 51 10.6 32 0 48 48 NNW 9 15 30.08 1019 10 16 0.00 0.00
2:52 pm 14:52 Sunny 53 11.7 32 0 45 45 VRB 3 6 30.05 1018 10 16 0.00 0.00
3:52 pm 15:52 Sunny 51 10.6 32 0 48 48 ESE 3 6 30.05 1018 10 16 0.00 0.00
4:52 pm 16:52 Sunny 48 8.9 30 -1.1 50 50 NW 3 6 30.06 1018 10 16 0.00 0.00
5:52 pm 17:52 Clear 40 4.4 29 -1.7 65 65 Calm 30.07 1018 10 16 0.00 0.00
6:52 pm 18:52 Clear 34 1.1 28 -2.2 79 79 NW 6 9 30.08 1019 10 16 0.00 0.00
7:52 pm 19:52 Clear 30 -1.1 26 -3.3 85 85 NNW 6 9 30.10 1019 10 16 0.00 0.00
8:52 pm 20:52 Clear 30 -1.1 26 -3.3 85 85 NW 3 6 30.11 1020 10 16 0.00 0.00
9:52 pm 21:52 Clear 27 -2.8 25 -3.9 92 92 NW 8 13 30.12 1020 10 16 0.00 0.00
10:52 pm 22:52 Clear 28 -2.2 24 -4.4 85 85 NNW 6 9 30.11 1020 10 16 0.00 0.00

Powered by AerisWeather